Location: Borojevi?i
(45.0486°N, 16.2297°E)
Time: 15:25:11
(UTC+00:00)

Helios 1B rocket - Pass Details

Date: 08 August 2020
Orbit: 575 x 583 km, 98.1° (Epoch: 18 September)

Event Time Altitude Azimuth Distance (km) Brightness Sun altitude
Rises 23:17:12 0° 18° (NNE) 2,797 7.1 -29.1°
Reaches altitude 10° 23:19:24 10° 23° (NNE) 1,893 5.9 -29.0°
Enters shadow 23:21:49 32° 42° (NE) 1,006 4.0 -29.0°
